Location: Baia Mare
(47.6567°N, 23.5850°E)
Time: 23:00:47
(UTC+03:00)

ISS - Pass Details

Date: 06 September 2019
Orbit: 411 x 421 km, 51.6° (Epoch: 19 September)

Event Time Altitude Azimuth Distance (km) Brightness Sun altitude
Exits shadow 04:09:38 34° 54° (NE) 699 -2.1 -24.7°
Drops below altitude 10° 04:11:43 10° 64° (ENE) 1,493 0.0 -24.4°
Sets 04:13:56 0° 68° (ENE) 2,405 1.3 -24.1°
